When you browse on this site, cookies collect data to enhance your experience and personalize the content and advertising you see.
Visit our Privacy Policy to learn more. By continuing to use the site, you agree to this use of cookies and data.
  • în România
  • Lista ţărilor
  • Pe 7 zile
  • Temperatura apei
  • Hartă satelitară
  • Meteo pe hartă
  • Widget-uri
  • user-avatar
    Intrare

    Meteo pe oră la Laszow

    Astăzi, 22 Mai, Miercuri

    Timp Temperatura Precipitaţii Vânt Presiune Umiditate
    00:00 +13°C° 0.7 mm 5 m/s 730 mmHg 93%
    01:00 +13°C° 0 mm 4 m/s 729 mmHg 95%
    02:00 +13°C° 0.7 mm 4 m/s 729 mmHg 96%
    03:00 +13°C° 0.7 mm 4 m/s 729 mmHg 96%
    04:00 +12°C° 0.7 mm 3 m/s 729 mmHg 96%
    05:00 +13°C° 0.3 mm 4 m/s 730 mmHg 95%
    06:00 +13°C° 0.3 mm 4 m/s 730 mmHg 93%
    07:00 +13°C° 0 mm 3 m/s 730 mmHg 92%
    08:00 +13°C° 0.6 mm 4 m/s 730 mmHg 92%
    09:00 +13°C° 0.6 mm 4 m/s 730 mmHg 92%
    10:00 +13°C° 0.6 mm 4 m/s 730 mmHg 93%
    11:00 +13°C° 0.4 mm 4 m/s 731 mmHg 92%
    12:00 +14°C° 0.4 mm 5 m/s 731 mmHg 90%
    13:00 +15°C° 0.4 mm 5 m/s 731 mmHg 89%
    14:00 +15°C° 0.7 mm 5 m/s 731 mmHg 87%
    15:00 +16°C° 0.7 mm 5 m/s 731 mmHg 85%
    16:00 +16°C° 0.7 mm 6 m/s 731 mmHg 83%
    17:00 +16°C° 1.7 mm 5 m/s 731 mmHg 85%
    18:00 +15°C° 1.7 mm 5 m/s 731 mmHg 88%
    19:00 +14°C° 1.7 mm 5 m/s 732 mmHg 90%
    20:00 +14°C° 0.9 mm 6 m/s 732 mmHg 91%
    21:00 +14°C° 0.9 mm 6 m/s 732 mmHg 93%
    22:00 +13°C° 0.9 mm 6 m/s 733 mmHg 94%
    23:00 +13°C° 0.2 mm 6 m/s 733 mmHg 95%

    Mâine, 23 Mai, Joi

    Timp Temperatura Precipitaţii Vânt Presiune Umiditate
    00:00 +13°C° 0.2 mm 6 m/s 733 mmHg 95%
    01:00 +13°C° 0.2 mm 6 m/s 734 mmHg 95%
    02:00 +13°C° 0.2 mm 6 m/s 734 mmHg 95%
    03:00 +13°C° 0.2 mm 5 m/s 734 mmHg 95%
    04:00 +13°C° 0.2 mm 5 m/s 734 mmHg 95%
    05:00 +14°C° 0.3 mm 5 m/s 735 mmHg 94%
    06:00 +14°C° 0.3 mm 5 m/s 735 mmHg 93%
    07:00 +15°C° 0.3 mm 5 m/s 735 mmHg 92%
    08:00 +15°C° 0.7 mm 5 m/s 736 mmHg 91%
    09:00 +15°C° 0.7 mm 6 m/s 736 mmHg 91%
    10:00 +15°C° 0.7 mm 6 m/s 736 mmHg 91%
    11:00 +14°C° 0.8 mm 6 m/s 736 mmHg 91%
    12:00 +14°C° 0.8 mm 7 m/s 737 mmHg 91%
    13:00 +14°C° 0.8 mm 7 m/s 737 mmHg 92%
    14:00 +12°C° 0.6 mm 7 m/s 737 mmHg 92%
    15:00 +12°C° 0.6 mm 7 m/s 737 mmHg 92%
    16:00 +12°C° 0.6 mm 7 m/s 737 mmHg 92%
    17:00 +13°C° 1 mm 6 m/s 737 mmHg 93%
    18:00 +13°C° 1 mm 6 m/s 737 mmHg 94%
    19:00 +11°C° 1 mm 6 m/s 737 mmHg 94%
    20:00 +11°C° 0.7 mm 6 m/s 737 mmHg 94%
    21:00 +11°C° 0.7 mm 6 m/s 738 mmHg 94%
    22:00 +13°C° 0.7 mm 6 m/s 738 mmHg 94%
    23:00 +13°C° 0.8 mm 6 m/s 738 mmHg 94%

    Poimâine, 24 Mai, Vineri

    Timp Temperatura Precipitaţii Vânt Presiune Umiditate
    00:00 +13°C° 0.8 mm 6 m/s 738 mmHg 95%
    01:00 +13°C° 0.8 mm 5 m/s 738 mmHg 95%
    02:00 +12°C° 0.5 mm 5 m/s 738 mmHg 95%
    03:00 +12°C° 0.5 mm 5 m/s 738 mmHg 95%
    04:00 +11°C° 0.5 mm 4 m/s 738 mmHg 95%
    05:00 +11°C° 0.5 mm 4 m/s 738 mmHg 93%
    06:00 +11°C° 0.5 mm 3 m/s 738 mmHg 92%
    07:00 +11°C° 0.5 mm 3 m/s 738 mmHg 91%
    08:00 +12°C° 0.4 mm 3 m/s 738 mmHg 88%
    09:00 +13°C° 0.4 mm 3 m/s 738 mmHg 85%
    10:00 +14°C° 0.4 mm 3 m/s 738 mmHg 81%
    11:00 +16°C° 0 mm 3 m/s 738 mmHg 78%
    12:00 +17°C° 0 mm 3 m/s 738 mmHg 74%
    13:00 +18°C° 0 mm 3 m/s 738 mmHg 70%
    14:00 +18°C° 0 mm 3 m/s 737 mmHg 72%
    15:00 +18°C° 0 mm 3 m/s 737 mmHg 75%
    16:00 +18°C° 0 mm 3 m/s 737 mmHg 77%
    17:00 +17°C° 0 mm 3 m/s 737 mmHg 79%
    18:00 +17°C° 0 mm 2 m/s 737 mmHg 80%
    19:00 +16°C° 0 mm 2 m/s 737 mmHg 81%
    20:00 +15°C° 0 mm 2 m/s 737 mmHg 81%
    21:00 +15°C° 0 mm 2 m/s 737 mmHg 82%
    22:00 +14°C° 0 mm 2 m/s 737 mmHg 82%
    23:00 +14°C° 0 mm 2 m/s 737 mmHg 83%

    25 Mai, Sâmbătă

    Timp Temperatura Precipitaţii Vânt Presiune Umiditate
    00:00 +13°C° 0 mm 2 m/s 737 mmHg 85%
    01:00 +13°C° 0 mm 2 m/s 737 mmHg 86%
    02:00 +12°C° 0 mm 2 m/s 737 mmHg 87%
    03:00 +12°C° 0 mm 2 m/s 737 mmHg 89%
    04:00 +10°C° 0 mm 2 m/s 737 mmHg 90%
    05:00 +13°C° 0 mm 2 m/s 737 mmHg 87%
    06:00 +14°C° 0 mm 2 m/s 737 mmHg 83%
    07:00 +16°C° 0 mm 2 m/s 737 mmHg 80%
    08:00 +17°C° 0.1 mm 2 m/s 737 mmHg 75%
    09:00 +18°C° 0.1 mm 2 m/s 737 mmHg 71%
    10:00 +20°C° 0.1 mm 3 m/s 737 mmHg 66%
    11:00 +20°C° 0.2 mm 3 m/s 737 mmHg 64%
    12:00 +21°C° 0.2 mm 3 m/s 737 mmHg 62%
    13:00 +21°C° 0.2 mm 3 m/s 737 mmHg 60%
    14:00 +21°C° 0.2 mm 3 m/s 736 mmHg 62%
    15:00 +21°C° 0.2 mm 4 m/s 736 mmHg 63%
    16:00 +21°C° 0.2 mm 4 m/s 736 mmHg 64%
    17:00 +20°C° 0.1 mm 3 m/s 736 mmHg 71%
    18:00 +18°C° 0.1 mm 3 m/s 736 mmHg 78%
    19:00 +16°C° 0.1 mm 2 m/s 736 mmHg 85%
    20:00 +15°C° 0 mm 2 m/s 737 mmHg 87%
    21:00 +14°C° 0 mm 2 m/s 737 mmHg 88%
    22:00 +13°C° 0 mm 1 m/s 737 mmHg 90%
    23:00 +13°C° 0 mm 1 m/s 737 mmHg 90%

    26 Mai, Duminică

    Timp Temperatura Precipitaţii Vânt Presiune Umiditate
    00:00 +13°C° 0 mm 1 m/s 737 mmHg 91%
    01:00 +12°C° 0 mm 2 m/s 737 mmHg 91%
    02:00 +12°C° 0 mm 2 m/s 737 mmHg 91%
    03:00 +12°C° 0 mm 2 m/s 737 mmHg 91%
    04:00 +12°C° 0 mm 2 m/s 737 mmHg 91%
    05:00 +13°C° 0 mm 2 m/s 737 mmHg 89%
    06:00 +14°C° 0 mm 2 m/s 737 mmHg 87%
    07:00 +15°C° 0 mm 2 m/s 737 mmHg 86%
    08:00 +16°C° 0 mm 2 m/s 737 mmHg 81%
    09:00 +17°C° 0 mm 3 m/s 737 mmHg 76%
    10:00 +18°C° 0 mm 3 m/s 736 mmHg 71%
    11:00 +19°C° 0.2 mm 4 m/s 736 mmHg 70%
    12:00 +19°C° 0.2 mm 4 m/s 736 mmHg 69%
    13:00 +19°C° 0.2 mm 5 m/s 736 mmHg 68%
    14:00 +19°C° 0.2 mm 5 m/s 736 mmHg 69%
    15:00 +18°C° 0.2 mm 4 m/s 736 mmHg 70%
    16:00 +18°C° 0.2 mm 4 m/s 736 mmHg 71%
    17:00 +17°C° 0 mm 3 m/s 736 mmHg 73%
    18:00 +14°C° 0 mm 3 m/s 736 mmHg 76%
    19:00 +14°C° 0 mm 2 m/s 736 mmHg 78%
    20:00 +13°C° 0 mm 2 m/s 736 mmHg 77%
    21:00 +11°C° 0 mm 3 m/s 737 mmHg 77%
    22:00 +11°C° 0 mm 3 m/s 737 mmHg 76%
    23:00 +10°C° 0 mm 3 m/s 737 mmHg 76%

    27 Mai, Luni

    Timp Temperatura Precipitaţii Vânt Presiune Umiditate
    00:00 +9°C° 0 mm 3 m/s 738 mmHg 77%
    01:00 +9°C° 0 mm 3 m/s 738 mmHg 78%
    02:00 +8°C° 0 mm 2 m/s 738 mmHg 81%
    03:00 +8°C° 0 mm 2 m/s 738 mmHg 85%
    04:00 +7°C° 0 mm 2 m/s 738 mmHg 89%
    05:00 +9°C° 0 mm 2 m/s 738 mmHg 85%
    06:00 +12°C° 0 mm 2 m/s 738 mmHg 81%
    07:00 +13°C° 0 mm 2 m/s 738 mmHg 77%
    08:00 +15°C° 0 mm 2 m/s 738 mmHg 72%
    09:00 +16°C° 0 mm 2 m/s 738 mmHg 68%
    10:00 +18°C° 0 mm 2 m/s 738 mmHg 64%
    11:00 +19°C° 0 mm 2 m/s 737 mmHg 62%
    12:00 +20°C° 0 mm 1 m/s 737 mmHg 60%
    13:00 +21°C° 0 mm 1 m/s 737 mmHg 59%
    14:00 +21°C° 0 mm 1 m/s 736 mmHg 60%
    15:00 +21°C° 0 mm 2 m/s 736 mmHg 62%
    16:00 +21°C° 0 mm 2 m/s 735 mmHg 64%
    17:00 +20°C° 0 mm 2 m/s 735 mmHg 70%
    18:00 +18°C° 0 mm 3 m/s 734 mmHg 76%
    19:00 +17°C° 0 mm 3 m/s 734 mmHg 82%
    20:00 +17°C° 0 mm 3 m/s 734 mmHg 84%
    21:00 +16°C° 0 mm 3 m/s 734 mmHg 86%
    22:00 +14°C° 0 mm 3 m/s 734 mmHg 88%
    23:00 +15°C° 0 mm 2 m/s 733 mmHg 90%
    Arată mai mult